QPF
0.05 0.05 0.05 0.04 0.05 0.05 0.04 0.06 0.05 0.02 0.01 0.01 0.01 0.01 0.01 0.02 0.03 0.04 0.04 0.05 0.05 0.03 0.03 0.03 0.03 0.03 0.03 0.02 0.01 0.01 0.01 0.02 0.03 0.05 0.05 0.05 0.04 0.04 0.04 0.02 0.02 0.02 0.02 0.02 0.03 0.05 0.07 0.05 0.05
0.04 0.04 0.06 0.06 0.06 0.05 0.07 0.09 0.06 0.02 0.01 0.01 0.01 0.00 0.00 0.02 0.02 0.02 0.03 0.04 0.03 0.03 0.02 0.01 0.02 0.02 0.02 0.02 0.02 0.02 0.02 0.02 0.03 0.05 0.06 0.04 0.03 0.02 0.03 0.02 0.02 0.02 0.02 0.02 0.03 0.04 0.06 0.04 0.05
0.04 0.05 0.06 0.07 0.08 0.08 0.12 0.13 0.07 0.02 0.01 0.00 0.00 0.00 0.01 0.03 0.04 0.02 0.02 0.03 0.01 0.02 0.02 0.02 0.02 0.02 0.01 0.01 0.02 0.03 0.03 0.03 0.04 0.06 0.05 0.04 0.02 0.02 0.02 0.02 0.01 0.01 0.01 0.02 0.02 0.03 0.04 0.03 0.04
0.07 0.08 0.04 0.05 0.07 0.09 0.14 0.12 0.07 0.03 0.01 0.00 0.00 0.01 0.01 0.03 0.03 0.02 0.01 0.01 0.01 0.01 0.01 0.02 0.02 0.02 0.02 0.01 0.01 0.02 0.03 0.04 0.04 0.03 0.03 0.03 0.03 0.02 0.02 0.02 0.01 0.01 0.02 0.01 0.02 0.02 0.02 0.02 0.04
0.08 0.07 0.05 0.05 0.09 0.09 0.08 0.06 0.05 0.03 0.01 0.00 0.00 0.01 0.04 0.05 0.02 0.01 0.02 0.01 0.01 0.01 0.01 0.01 0.02 0.02 0.02 0.02 0.02 0.02 0.03 0.05 0.05 0.05 0.05 0.04 0.04 0.03 0.02 0.02 0.02 0.02 0.03 0.02 0.01 0.01 0.02 0.02 0.03
0.05 0.04 0.05 0.04 0.07 0.10 0.08 0.04 0.03 0.04 0.02 0.01 0.01 0.02 0.07 0.09 0.04 0.02 0.02 0.01 0.01 0.00 0.00 0.01 0.02 0.02 0.01 0.01 0.01 0.01 0.02 0.03 0.04 0.03 0.03 0.03 0.03 0.03 0.02 0.02 0.03 0.03 0.03 0.03 0.02 0.02 0.02 0.02 0.02
0.04 0.04 0.05 0.04 0.06 0.09 0.07 0.03 0.03 0.05 0.03 0.03 0.02 0.04 0.08 0.11 0.06 0.03 0.02 0.01 0.01 0.01 0.01 0.01 0.01 0.01 0.02 0.01 0.01 0.00 0.01 0.01 0.02 0.03 0.03 0.03 0.03 0.03 0.03 0.03 0.04 0.03 0.03 0.02 0.02 0.02 0.03 0.03 0.02
0.05 0.03 0.04 0.04 0.06 0.07 0.05 0.02 0.02 0.04 0.04 0.03 0.02 0.03 0.08 0.10 0.05 0.03 0.02 0.01 0.01 0.01 0.01 0.01 0.01 0.01 0.01 0.01 0.01 0.01 0.01 0.01 0.01 0.02 0.02 0.02 0.02 0.02 0.02 0.02 0.03 0.03 0.02 0.02 0.02 0.03 0.04 0.04 0.03
0.05 0.04 0.04 0.05 0.07 0.06 0.03 0.01 0.02 0.03 0.04 0.03 0.02 0.03 0.05 0.05 0.05 0.05 0.04 0.02 0.01 0.01 0.00 0.01 0.01 0.01 0.01 0.00 0.00 0.00 0.01 0.02 0.02 0.01 0.01 0.01 0.01 0.01 0.01 0.02 0.03 0.03 0.03 0.03 0.04 0.05 0.04 0.03 0.02
0.04 0.03 0.03 0.03 0.04 0.05 0.05 0.02 0.01 0.02 0.03 0.03 0.04 0.06 0.06 0.03 0.03 0.05 0.06 0.04 0.02 0.02 0.01 0.01 0.00 0.01 0.01 0.00 0.00 0.00 0.00 0.01 0.01 0.01 0.01 0.01 0.01 0.01 0.01 0.01 0.03 0.02 0.02 0.02 0.03 0.04 0.05 0.05 0.03
0.01 0.02 0.02 0.01 0.02 0.02 0.04 0.02 0.02 0.03 0.04 0.04 0.05 0.07 0.10 0.05 0.03 0.02 0.03 0.02 0.02 0.02 0.01 0.00 0.00 0.00 0.00 0.00 0.00 0.00 0.01 0.01 0.02 0.02 0.02 0.01 0.00 0.01 0.00 0.01 0.01 0.01 0.01 0.01 0.01 0.02 0.04 0.04 0.03
0.01 0.01 0.01 0.01 0.01 0.02 0.02 0.02 0.02 0.03 0.04 0.04 0.03 0.04 0.06 0.04 0.03 0.02 0.02 0.02 0.02 0.02 0.01 0.00 0.00 0.00 0.00 0.00 0.00 0.01 0.00 0.00 0.01 0.01 0.01 0.01 0.01 0.01 0.01 0.01 0.01 0.00 0.00 0.00 0.01 0.02 0.03 0.04 0.04
0.03 0.01 0.00 0.01 0.01 0.01 0.01 0.01 0.01 0.02 0.03 0.02 0.02 0.03 0.04 0.03 0.03 0.02 0.02 0.03 0.04 0.02 0.01 0.01 0.01 0.01 0.01 0.00 0.00 0.00 0.00 0.00 0.01 0.01 0.01 0.01 0.01 0.01 0.00 0.00 0.01 0.01 0.00 0.00 0.01 0.01 0.02 0.02 0.02
0.05 0.02 0.01 0.01 0.00 0.01 0.01 0.01 0.01 0.01 0.02 0.02 0.01 0.01 0.01 0.01 0.01 0.01 0.02 0.03 0.03 0.03 0.03 0.02 0.01 0.01 0.01 0.01 0.00 0.00 0.00 0.00 0.00 0.01 0.00 0.00 0.00 0.00 0.00 0.00 0.01 0.01 0.02 0.02 0.02 0.01 0.02 0.03 0.02
0.06 0.05 0.04 0.02 0.01 0.01 0.01 0.02 0.02 0.01 0.02 0.01 0.01 0.01 0.00 0.01 0.01 0.01 0.01 0.02 0.02 0.02 0.03 0.03 0.04 0.03 0.02 0.01 0.01 0.01 0.01 0.01 0.00 0.01 0.01 0.00 0.00 0.00 0.00 0.00 0.01 0.01 0.01 0.02 0.02 0.02 0.03 0.03 0.02
0.03 0.04 0.04 0.04 0.02 0.01 0.02 0.03 0.02 0.01 0.01 0.01 0.01 0.01 0.01 0.02 0.02 0.02 0.02 0.02 0.01 0.01 0.02 0.02 0.03 0.04 0.04 0.04 0.03 0.02 0.01 0.01 0.00 0.01 0.01 0.00 0.00 0.00 0.01 0.00 0.00 0.00 0.00 0.00 0.01 0.02 0.01 0.02 0.01
0.03 0.03 0.03 0.03 0.02 0.01 0.02 0.03 0.02 0.02 0.01 0.01 0.01 0.01 0.01 0.02 0.03 0.03 0.02 0.02 0.01 0.01 0.01 0.01 0.01 0.03 0.05 0.06 0.06 0.04 0.02 0.02 0.02 0.02 0.02 0.01 0.01 0.01 0.01 0.01 0.00 0.00 0.00 0.01 0.01 0.02 0.01 0.01 0.01
0.02 0.02 0.02 0.02 0.02 0.02 0.02 0.03 0.02 0.02 0.02 0.03 0.03 0.02 0.03 0.03 0.03 0.03 0.02 0.02 0.02 0.02 0.02 0.02 0.02 0.03 0.03 0.05 0.06 0.06 0.05 0.03 0.03 0.02 0.02 0.02 0.01 0.01 0.01 0.00 0.00 0.00 0.00 0.00 0.01 0.01 0.01 0.01 0.01
0.00 0.01 0.01 0.02 0.01 0.01 0.02 0.02 0.02 0.02 0.01 0.02 0.02 0.03 0.03 0.03 0.02 0.03 0.02 0.02 0.01 0.02 0.02 0.03 0.03 0.02 0.03 0.03 0.04 0.05 0.05 0.04 0.03 0.02 0.02 0.02 0.01 0.01 0.01 0.00 0.00 0.00 0.00 0.00 0.00 0.01 0.01 0.01 0.01
0.01 0.02 0.01 0.02 0.02 0.02 0.03 0.02 0.02 0.02 0.02 0.02 0.02 0.02 0.02 0.03 0.03 0.02 0.01 0.01 0.02 0.01 0.01 0.01 0.04 0.04 0.04 0.05 0.05 0.06 0.07 0.06 0.03 0.02 0.02 0.01 0.01 0.00 0.00 0.00 0.00 0.00 0.00 0.00 0.00 0.00 0.00 0.01 0.01
0.03 0.03 0.02 0.01 0.02 0.02 0.01 0.01 0.01 0.01 0.02 0.02 0.01 0.01 0.02 0.01 0.01 0.01 0.02 0.02 0.02 0.01 0.01 0.00 0.01 0.02 0.04 0.05 0.05 0.04 0.05 0.08 0.07 0.05 0.04 0.02 0.01 0.00 0.00 0.00 0.00 0.00 0.00 0.00 0.01 0.01 0.01 0.01 0.01
0.01 0.01 0.01 0.01 0.02 0.02 0.01 0.01 0.01 0.01 0.01 0.02 0.01 0.01 0.01 0.01 0.01 0.02 0.02 0.02 0.02 0.02 0.01 0.00 0.01 0.02 0.03 0.03 0.03 0.03 0.04 0.06 0.07 0.06 0.06 0.04 0.02 0.01 0.01 0.01 0.01 0.00 0.00 0.00 0.00 0.01 0.01 0.01 0.01
0.01 0.01 0.01 0.02 0.02 0.02 0.01 0.01 0.00 0.01 0.01 0.01 0.01 0.01 0.01 0.01 0.01 0.02 0.02 0.02 0.02 0.02 0.01 0.01 0.01 0.02 0.02 0.03 0.03 0.04 0.04 0.04 0.05 0.06 0.06 0.06 0.05 0.03 0.02 0.01 0.00 0.00 0.00 0.00 0.00 0.00 0.00 0.01 0.01
0.01 0.02 0.01 0.02 0.02 0.02 0.02 0.01 0.00 0.01 0.01 0.02 0.03 0.02 0.02 0.02 0.03 0.03 0.03 0.03 0.03 0.02 0.01 0.01 0.02 0.02 0.02 0.03 0.04 0.04 0.04 0.04 0.03 0.05 0.06 0.06 0.05 0.04 0.02 0.01 0.00 0.00 0.00 0.00 0.00 0.00 0.00 0.00 0.00
0.01 0.03 0.03 0.02 0.02 0.02 0.01 0.01 0.01 0.01 0.01 0.01 0.02 0.02 0.01 0.02 0.03 0.03 0.04 0.03 0.02 0.02 0.02 0.02 0.02 0.02 0.02 0.03 0.03 0.04 0.03 0.04 0.03 0.03 0.03 0.04 0.04 0.03 0.02 0.01 0.01 0.00 0.00 0.00 0.00 0.00 0.00 0.00 0.00
0.01 0.02 0.04 0.05 0.04 0.03 0.02 0.01 0.01 0.02 0.01 0.01 0.01 0.01 0.01 0.01 0.01 0.02 0.03 0.03 0.03 0.03 0.02 0.02 0.02 0.02 0.02 0.03 0.03 0.03 0.03 0.03 0.04 0.04 0.03 0.02 0.02 0.03 0.03 0.02 0.01 0.01 0.00 0.00 0.00 0.00 0.00 0.00 0.00
0.01 0.01 0.02 0.02 0.03 0.03 0.02 0.01 0.02 0.02 0.01 0.01 0.01 0.00 0.00 0.00 0.00 0.01 0.02 0.03 0.03 0.04 0.03 0.02 0.02 0.03 0.02 0.02 0.02 0.02 0.03 0.03 0.04 0.04 0.03 0.03 0.02 0.03 0.03 0.03 0.02 0.01 0.01 0.00 0.00 0.00 0.00 0.00 0.00
0.01 0.01 0.02 0.02 0.02 0.04 0.03 0.02 0.02 0.02 0.01 0.01 0.00 0.00 0.00 0.00 0.00 0.01 0.01 0.03 0.06 0.05 0.03 0.01 0.01 0.02 0.02 0.03 0.02 0.02 0.02 0.03 0.03 0.03 0.03 0.02 0.02 0.02 0.02 0.01 0.02 0.03 0.02 0.01 0.00 0.00 0.00 0.01 0.01
0.02 0.01 0.02 0.02 0.03 0.03 0.02 0.02 0.02 0.02 0.02 0.01 0.00 0.00 0.00 0.00 0.00 0.01 0.01 0.02 0.08 0.05 0.03 0.02 0.02 0.02 0.03 0.03 0.03 0.02 0.03 0.03 0.03 0.03 0.04 0.03 0.02 0.02 0.01 0.02 0.03 0.04 0.03 0.02 0.01 0.00 0.00 0.00 0.00
0.03 0.04 0.05 0.05 0.05 0.05 0.05 0.05 0.03 0.02 0.02 0.01 0.01 0.01 0.01 0.00 0.01 0.01 0.01 0.01 0.05 0.05 0.03 0.03 0.02 0.02 0.02 0.02 0.02 0.03 0.03 0.03 0.03 0.03 0.03 0.03 0.03 0.02 0.01 0.02 0.04 0.05 0.03 0.01 0.01 0.00 0.00 0.00 0.00
MSLP
1010.44 1011.28 1012.26 1013.23 1014.07 1014.67 1014.98 1015.00 1014.79 1014.41 1013.99 1013.60 1013.31 1013.14 1013.06 1013.03 1013.00 1012.90 1012.72 1012.45 1012.12 1011.79 1011.51 1011.33 1011.27 1011.32 1011.45 1011.61 1011.75 1011.83 1011.83 1011.76 1011.64 1011.52 1011.44 1011.42 1011.47 1011.57 1011.70 1011.80 1011.86 1011.83 1011.74 1011.58 1011.40 1011.20 1011.03 1010.90 1010.81
1011.02 1012.05 1013.14 1014.13 1014.87 1015.29 1015.35 1015.08 1014.56 1013.93 1013.30 1012.77 1012.40 1012.21 1012.16 1012.18 1012.20 1012.17 1012.05 1011.85 1011.59 1011.34 1011.14 1011.04 1011.06 1011.17 1011.35 1011.53 1011.69 1011.77 1011.78 1011.72 1011.63 1011.54 1011.49 1011.50 1011.56 1011.66 1011.77 1011.86 1011.89 1011.86 1011.76 1011.62 1011.45 1011.27 1011.11 1010.96 1010.84
1011.69 1012.85 1013.98 1014.91 1015.51 1015.72 1015.52 1014.99 1014.23 1013.39 1012.60 1011.99 1011.58 1011.38 1011.34 1011.39 1011.45 1011.46 1011.38 1011.23 1011.04 1010.86 1010.75 1010.73 1010.83 1011.00 1011.22 1011.43 1011.59 1011.69 1011.70 1011.66 1011.59 1011.53 1011.51 1011.53 1011.60 1011.69 1011.77 1011.82 1011.82 1011.77 1011.67 1011.55 1011.41 1011.27 1011.13 1011.00 1010.87
1012.38 1013.59 1014.68 1015.49 1015.92 1015.90 1015.48 1014.74 1013.80 1012.84 1011.99 1011.34 1010.94 1010.75 1010.73 1010.80 1010.86 1010.87 1010.81 1010.69 1010.55 1010.44 1010.40 1010.47 1010.62 1010.85 1011.10 1011.32 1011.49 1011.58 1011.60 1011.58 1011.54 1011.51 1011.51 1011.55 1011.61 1011.67 1011.71 1011.72 1011.68 1011.61 1011.51 1011.41 1011.31 1011.21 1011.12 1011.01 1010.89
1013.03 1014.19 1015.16 1015.80 1016.03 1015.82 1015.22 1014.34 1013.33 1012.35 1011.51 1010.91 1010.55 1010.41 1010.41 1010.47 1010.53 1010.52 1010.44 1010.33 1010.21 1010.15 1010.17 1010.28 1010.49 1010.75 1011.01 1011.23 1011.39 1011.48 1011.51 1011.50 1011.49 1011.50 1011.54 1011.59 1011.65 1011.69 1011.69 1011.65 1011.57 1011.46 1011.35 1011.26 1011.19 1011.14 1011.09 1011.03 1010.93
1013.54 1014.58 1015.37 1015.82 1015.85 1015.47 1014.75 1013.83 1012.83 1011.92 1011.19 1010.70 1010.43 1010.35 1010.38 1010.43 1010.46 1010.41 1010.31 1010.17 1010.06 1010.02 1010.08 1010.23 1010.46 1010.73 1010.98 1011.19 1011.33 1011.41 1011.44 1011.46 1011.49 1011.54 1011.62 1011.71 1011.78 1011.81 1011.78 1011.69 1011.55 1011.41 1011.28 1011.18 1011.13 1011.11 1011.09 1011.06 1010.98
1013.87 1014.72 1015.30 1015.53 1015.38 1014.87 1014.11 1013.21 1012.32 1011.55 1010.99 1010.65 1010.51 1010.51 1010.57 1010.62 1010.60 1010.51 1010.36 1010.20 1010.08 1010.05 1010.12 1010.29 1010.53 1010.79 1011.03 1011.21 1011.33 1011.39 1011.43 1011.48 1011.55 1011.66 1011.80 1011.94 1012.03 1012.07 1012.02 1011.89 1011.71 1011.52 1011.35 1011.23 1011.16 1011.14 1011.14 1011.13 1011.07
1013.99 1014.63 1014.98 1015.00 1014.69 1014.11 1013.35 1012.53 1011.79 1011.20 1010.83 1010.67 1010.67 1010.75 1010.84 1010.88 1010.83 1010.69 1010.50 1010.32 1010.19 1010.17 1010.25 1010.43 1010.67 1010.92 1011.14 1011.29 1011.39 1011.44 1011.49 1011.56 1011.69 1011.86 1012.07 1012.26 1012.40 1012.45 1012.40 1012.25 1012.04 1011.80 1011.58 1011.41 1011.32 1011.27 1011.26 1011.24 1011.19
1013.92 1014.34 1014.48 1014.31 1013.88 1013.24 1012.52 1011.81 1011.23 1010.83 1010.65 1010.65 1010.76 1010.92 1011.04 1011.07 1010.99 1010.82 1010.61 1010.42 1010.30 1010.29 1010.39 1010.59 1010.83 1011.07 1011.27 1011.41 1011.49 1011.54 1011.60 1011.70 1011.88 1012.11 1012.39 1012.64 1012.83 1012.93 1012.89 1012.74 1012.50 1012.22 1011.95 1011.73 1011.58 1011.50 1011.45 1011.41 1011.34
1013.73 1013.95 1013.90 1013.58 1013.04 1012.38 1011.70 1011.09 1010.65 1010.41 1010.38 1010.50 1010.70 1010.91 1011.04 1011.07 1010.98 1010.80 1010.59 1010.41 1010.32 1010.34 1010.48 1010.70 1010.96 1011.20 1011.39 1011.52 1011.60 1011.66 1011.73 1011.87 1012.08 1012.37 1012.69 1013.01 1013.26 1013.39 1013.39 1013.25 1013.01 1012.71 1012.41 1012.14 1011.94 1011.80 1011.71 1011.64 1011.55
1013.50 1013.56 1013.35 1012.91 1012.30 1011.61 1010.96 1010.43 1010.08 1009.94 1009.99 1010.18 1010.42 1010.64 1010.78 1010.81 1010.72 1010.56 1010.38 1010.25 1010.20 1010.27 1010.45 1010.71 1011.00 1011.26 1011.47 1011.61 1011.70 1011.77 1011.86 1012.02 1012.26 1012.57 1012.93 1013.29 1013.58 1013.76 1013.80 1013.70 1013.48 1013.19 1012.87 1012.58 1012.33 1012.15 1012.01 1011.91 1011.80
1013.34 1013.27 1012.95 1012.40 1011.73 1011.03 1010.38 1009.88 1009.57 1009.46 1009.53 1009.72 1009.95 1010.16 1010.29 1010.32 1010.25 1010.13 1010.00 1009.93 1009.95 1010.08 1010.31 1010.61 1010.94 1011.23 1011.47 1011.64 1011.75 1011.84 1011.95 1012.12 1012.36 1012.68 1013.05 1013.42 1013.74 1013.96 1014.05 1014.00 1013.83 1013.57 1013.28 1012.98 1012.72 1012.51 1012.35 1012.22 1012.09
1013.34 1013.17 1012.75 1012.14 1011.43 1010.69 1010.04 1009.52 1009.19 1009.06 1009.08 1009.22 1009.39 1009.56 1009.67 1009.70 1009.66 1009.59 1009.53 1009.53 1009.61 1009.80 1010.08 1010.42 1010.79 1011.12 1011.39 1011.60 1011.75 1011.87 1011.99 1012.16 1012.39 1012.69 1013.04 1013.40 1013.72 1013.97 1014.11 1014.12 1014.02 1013.83 1013.58 1013.33 1013.08 1012.87 1012.71 1012.56 1012.44
1013.51 1013.27 1012.79 1012.15 1011.40 1010.66 1009.98 1009.43 1009.05 1008.84 1008.77 1008.81 1008.91 1009.01 1009.08 1009.11 1009.11 1009.09 1009.10 1009.15 1009.29 1009.52 1009.83 1010.19 1010.58 1010.94 1011.26 1011.51 1011.70 1011.85 1011.99 1012.16 1012.36 1012.62 1012.92 1013.24 1013.55 1013.80 1013.98 1014.06 1014.04 1013.94 1013.78 1013.59 1013.39 1013.22 1013.06 1012.93 1012.81
1013.84 1013.55 1013.05 1012.39 1011.66 1010.92 1010.24 1009.66 1009.21 1008.91 1008.73 1008.66 1008.65 1008.67 1008.71 1008.73 1008.75 1008.78 1008.83 1008.92 1009.08 1009.32 1009.62 1009.98 1010.36 1010.73 1011.08 1011.37 1011.61 1011.81 1011.97 1012.13 1012.30 1012.51 1012.75 1013.01 1013.28 1013.53 1013.74 1013.88 1013.95 1013.95 1013.88 1013.78 1013.65 1013.52 1013.41 1013.30 1013.21
1014.25 1013.93 1013.43 1012.81 1012.13 1011.45 1010.80 1010.22 1009.73 1009.34 1009.06 1008.86 1008.74 1008.68 1008.66 1008.67 1008.70 1008.75 1008.82 1008.92 1009.06 1009.26 1009.51 1009.82 1010.16 1010.53 1010.88 1011.22 1011.50 1011.74 1011.94 1012.10 1012.25 1012.41 1012.59 1012.79 1013.01 1013.24 1013.46 1013.66 1013.80 1013.90 1013.93 1013.92 1013.87 1013.80 1013.72 1013.65 1013.59
1014.62 1014.30 1013.86 1013.34 1012.78 1012.20 1011.64 1011.11 1010.61 1010.17 1009.79 1009.48 1009.25 1009.10 1009.02 1008.99 1009.00 1009.04 1009.09 1009.15 1009.24 1009.36 1009.52 1009.74 1010.02 1010.34 1010.69 1011.04 1011.37 1011.66 1011.90 1012.08 1012.22 1012.34 1012.47 1012.61 1012.79 1012.99 1013.22 1013.45 1013.66 1013.84 1013.96 1014.03 1014.05 1014.03 1014.00 1013.96 1013.93
1014.86 1014.59 1014.26 1013.90 1013.52 1013.13 1012.72 1012.29 1011.83 1011.36 1010.91 1010.50 1010.16 1009.91 1009.74 1009.65 1009.62 1009.62 1009.62 1009.61 1009.60 1009.61 1009.64 1009.74 1009.91 1010.17 1010.48 1010.84 1011.21 1011.54 1011.83 1012.05 1012.20 1012.31 1012.40 1012.50 1012.64 1012.82 1013.04 1013.30 1013.56 1013.79 1013.98 1014.11 1014.18 1014.21 1014.21 1014.20 1014.20
1014.93 1014.74 1014.58 1014.44 1014.32 1014.18 1013.98 1013.69 1013.31 1012.85 1012.34 1011.84 1011.39 1011.02 1010.75 1010.58 1010.47 1010.40 1010.32 1010.22 1010.09 1009.95 1009.84 1009.79 1009.84 1010.00 1010.26 1010.61 1010.99 1011.37 1011.70 1011.96 1012.15 1012.27 1012.35 1012.43 1012.54 1012.70 1012.92 1013.19 1013.47 1013.75 1013.98 1014.15 1014.26 1014.31 1014.34 1014.35 1014.37
1014.83 1014.78 1014.83 1014.97 1015.15 1015.30 1015.35 1015.25 1014.97 1014.53 1013.98 1013.39 1012.81 1012.32 1011.93 1011.65 1011.44 1011.28 1011.10 1010.89 1010.63 1010.35 1010.08 1009.88 1009.78 1009.83 1010.02 1010.32 1010.71 1011.11 1011.49 1011.79 1012.02 1012.16 1012.25 1012.33 1012.43 1012.59 1012.81 1013.08 1013.39 1013.68 1013.94 1014.14 1014.27 1014.34 1014.37 1014.40 1014.44
1014.64 1014.76 1015.06 1015.51 1016.01 1016.47 1016.79 1016.88 1016.71 1016.30 1015.71 1015.01 1014.31 1013.68 1013.15 1012.74 1012.43 1012.16 1011.88 1011.56 1011.18 1010.76 1010.34 1009.98 1009.74 1009.66 1009.76 1010.00 1010.36 1010.76 1011.16 1011.50 1011.76 1011.93 1012.05 1012.14 1012.25 1012.41 1012.64 1012.92 1013.23 1013.54 1013.82 1014.03 1014.18 1014.26 1014.31 1014.34 1014.41
1014.48 1014.78 1015.35 1016.09 1016.92 1017.67 1018.23 1018.50 1018.44 1018.04 1017.39 1016.60 1015.77 1014.99 1014.32 1013.79 1013.36 1012.99 1012.62 1012.19 1011.71 1011.17 1010.62 1010.12 1009.74 1009.53 1009.51 1009.67 1009.97 1010.35 1010.74 1011.09 1011.36 1011.56 1011.70 1011.81 1011.93 1012.11 1012.34 1012.64 1012.97 1013.29 1013.59 1013.82 1013.99 1014.08 1014.15 1014.20 1014.28
1014.47 1014.96 1015.75 1016.77 1017.86 1018.87 1019.63 1020.04 1020.05 1019.65 1018.95 1018.06 1017.11 1016.19 1015.40 1014.75 1014.22 1013.76 1013.31 1012.80 1012.23 1011.60 1010.94 1010.32 1009.82 1009.48 1009.34 1009.40 1009.61 1009.92 1010.27 1010.59 1010.86 1011.06 1011.21 1011.33 1011.47 1011.66 1011.91 1012.22 1012.57 1012.92 1013.24 1013.50 1013.69 1013.82 1013.91 1013.99 1014.10
1014.71 1015.34 1016.32 1017.54 1018.83 1020.02 1020.92 1021.43 1021.47 1021.07 1020.32 1019.35 1018.29 1017.27 1016.37 1015.62 1015.01 1014.48 1013.97 1013.41 1012.78 1012.07 1011.34 1010.62 1010.01 1009.55 1009.29 1009.23 1009.33 1009.54 1009.81 1010.08 1010.31 1010.49 1010.63 1010.75 1010.89 1011.09 1011.35 1011.67 1012.04 1012.42 1012.77 1013.07 1013.31 1013.48 1013.61 1013.72 1013.87
1015.21 1015.94 1017.04 1018.39 1019.79 1021.07 1022.05 1022.60 1022.66 1022.24 1021.45 1020.42 1019.30 1018.21 1017.24 1016.43 1015.76 1015.19 1014.63 1014.04 1013.37 1012.62 1011.83 1011.04 1010.34 1009.78 1009.40 1009.21 1009.19 1009.30 1009.47 1009.65 1009.82 1009.94 1010.04 1010.14 1010.27 1010.45 1010.72 1011.05 1011.44 1011.84 1012.23 1012.58 1012.86 1013.08 1013.26 1013.42 1013.60
1015.93 1016.71 1017.86 1019.24 1020.68 1021.97 1022.95 1023.50 1023.55 1023.12 1022.32 1021.28 1020.13 1019.02 1018.03 1017.19 1016.49 1015.89 1015.31 1014.70 1014.01 1013.23 1012.40 1011.57 1010.80 1010.17 1009.69 1009.39 1009.25 1009.23 1009.29 1009.37 1009.44 1009.50 1009.54 1009.59 1009.69 1009.85 1010.10 1010.43 1010.82 1011.24 1011.66 1012.05 1012.38 1012.65 1012.88 1013.08 1013.29
1016.79 1017.56 1018.69 1020.03 1021.42 1022.66 1023.59 1024.10 1024.14 1023.71 1022.93 1021.91 1020.80 1019.71 1018.73 1017.90 1017.20 1016.59 1016.00 1015.37 1014.67 1013.88 1013.04 1012.18 1011.38 1010.68 1010.13 1009.74 1009.49 1009.36 1009.31 1009.28 1009.26 1009.23 1009.19 1009.19 1009.23 1009.35 1009.56 1009.87 1010.25 1010.67 1011.10 1011.51 1011.88 1012.20 1012.47 1012.71 1012.94
1017.68 1018.41 1019.46 1020.70 1021.98 1023.11 1023.95 1024.40 1024.42 1024.01 1023.28 1022.33 1021.30 1020.28 1019.35 1018.55 1017.87 1017.26 1016.66 1016.02 1015.31 1014.52 1013.67 1012.82 1012.00 1011.27 1010.67 1010.22 1009.89 1009.67 1009.51 1009.39 1009.27 1009.15 1009.05 1008.97 1008.95 1009.02 1009.18 1009.44 1009.79 1010.18 1010.60 1011.01 1011.39 1011.73 1012.02 1012.29 1012.54
1018.51 1019.17 1020.11 1021.21 1022.33 1023.32 1024.05 1024.43 1024.44 1024.07 1023.41 1022.56 1021.64 1020.72 1019.87 1019.13 1018.47 1017.86 1017.26 1016.61 1015.90 1015.11 1014.27 1013.42 1012.61 1011.88 1011.26 1010.76 1010.38 1010.09 1009.86 1009.65 1009.46 1009.27 1009.09 1008.95 1008.87 1008.87 1008.97 1009.18 1009.46 1009.81 1010.18 1010.56 1010.92 1011.25 1011.54 1011.81 1012.06
1019.24 1019.83 1020.64 1021.58 1022.52 1023.35 1023.96 1024.27 1024.27 1023.94 1023.38 1022.65 1021.85 1021.05 1020.30 1019.62 1018.99 1018.39 1017.77 1017.12 1016.39 1015.61 1014.78 1013.95 1013.16 1012.44 1011.82 1011.31 1010.89 1010.55 1010.26 1010.00 1009.74 1009.50 1009.27 1009.08 1008.95 1008.89 1008.93 1009.06 1009.27 1009.54 1009.84 1010.16 1010.47 1010.75 1011.02 1011.27 1011.52
Thickness
5788 5787 5784 5772 5748 5730 5726 5737 5746 5749 5753 5761 5765 5760 5751 5744 5738 5733 5752 5759 5759 5758 5757 5758 5758 5759 5759 5759 5760 5760 5760 5760 5760 5760 5760 5760 5760 5760 5760 5760 5760 5759 5759 5760 5760 5760 5760 5761 5761
5787 5785 5774 5757 5732 5715 5723 5738 5743 5751 5759 5765 5763 5759 5751 5745 5751 5750 5753 5757 5758 5756 5756 5756 5756 5756 5756 5757 5757 5758 5758 5758 5758 5758 5757 5757 5757 5757 5757 5757 5757 5757 5757 5757 5757 5757 5757 5758 5758
5785 5781 5760 5742 5729 5720 5726 5739 5746 5758 5766 5764 5757 5756 5750 5745 5751 5752 5755 5757 5756 5754 5754 5754 5754 5754 5754 5754 5755 5755 5755 5755 5755 5755 5755 5754 5754 5754 5754 5754 5754 5754 5754 5754 5754 5755 5755 5755 5755
5779 5765 5752 5734 5728 5735 5739 5744 5751 5755 5760 5762 5756 5746 5749 5755 5755 5756 5757 5755 5753 5752 5752 5751 5752 5751 5752 5752 5752 5753 5752 5752 5752 5752 5752 5751 5751 5751 5751 5751 5751 5751 5751 5751 5751 5751 5752 5752 5752
5772 5752 5734 5724 5729 5739 5746 5752 5754 5752 5752 5755 5752 5740 5739 5752 5757 5757 5755 5753 5751 5750 5749 5749 5749 5749 5749 5749 5750 5750 5750 5749 5749 5749 5749 5748 5748 5748 5748 5748 5748 5748 5748 5748 5748 5748 5748 5749 5749
5754 5743 5721 5716 5727 5738 5746 5754 5754 5750 5749 5751 5747 5738 5736 5749 5751 5752 5753 5751 5750 5748 5747 5747 5747 5747 5746 5746 5747 5747 5747 5746 5746 5746 5746 5745 5745 5744 5744 5745 5745 5745 5745 5745 5745 5745 5745 5745 5745
5746 5732 5721 5722 5725 5732 5744 5754 5750 5746 5745 5748 5749 5735 5735 5743 5749 5751 5751 5749 5748 5746 5745 5744 5744 5744 5744 5743 5743 5744 5743 5743 5743 5742 5742 5742 5741 5741 5741 5741 5742 5742 5741 5741 5741 5741 5741 5741 5741
5753 5733 5723 5723 5724 5729 5747 5752 5752 5748 5745 5755 5752 5734 5731 5741 5749 5749 5747 5745 5744 5743 5742 5741 5741 5741 5741 5741 5740 5740 5740 5739 5739 5739 5739 5738 5738 5738 5738 5738 5738 5738 5738 5737 5737 5737 5737 5737 5737
5755 5725 5715 5723 5726 5731 5745 5745 5749 5754 5749 5748 5749 5745 5746 5747 5747 5743 5740 5738 5738 5738 5738 5739 5738 5738 5738 5737 5737 5737 5736 5736 5736 5735 5735 5735 5734 5734 5734 5734 5734 5734 5734 5733 5733 5733 5733 5732 5732
5742 5719 5725 5737 5739 5737 5742 5743 5744 5742 5737 5736 5739 5743 5745 5744 5741 5737 5734 5733 5733 5733 5735 5736 5736 5735 5735 5734 5734 5733 5733 5733 5732 5732 5731 5731 5730 5730 5730 5730 5730 5730 5729 5729 5728 5728 5728 5727 5727
5742 5729 5737 5742 5746 5744 5741 5742 5746 5736 5728 5732 5733 5736 5739 5738 5736 5735 5734 5734 5733 5734 5734 5734 5734 5733 5733 5732 5731 5730 5730 5729 5729 5728 5728 5727 5727 5726 5726 5726 5725 5724 5724 5724 5723 5723 5722 5722 5721
5740 5740 5743 5743 5748 5745 5741 5742 5739 5737 5736 5743 5742 5741 5738 5735 5733 5733 5733 5733 5733 5732 5732 5733 5733 5732 5731 5730 5729 5727 5727 5726 5726 5725 5724 5723 5722 5722 5722 5721 5720 5720 5719 5719 5718 5717 5717 5717 5716
5737 5738 5744 5746 5747 5745 5743 5739 5737 5736 5743 5744 5742 5738 5735 5733 5732 5733 5734 5733 5732 5731 5731 5732 5732 5730 5729 5728 5727 5725 5724 5723 5723 5722 5721 5720 5719 5718 5717 5717 5716 5715 5715 5714 5714 5713 5712 5712 5711
5739 5739 5741 5742 5743 5743 5737 5734 5734 5733 5740 5739 5736 5732 5732 5732 5732 5730 5730 5729 5729 5730 5730 5730 5730 5728 5727 5725 5724 5723 5721 5720 5720 5719 5718 5717 5716 5714 5713 5712 5712 5711 5710 5709 5708 5708 5707 5706 5706
5743 5733 5731 5735 5739 5739 5735 5723 5727 5735 5737 5733 5731 5731 5731 5731 5731 5729 5730 5729 5729 5728 5728 5728 5727 5726 5725 5723 5722 5720 5718 5717 5716 5715 5715 5714 5713 5711 5710 5708 5707 5706 5705 5704 5703 5702 5702 5701 5701
5732 5720 5711 5726 5735 5736 5725 5707 5725 5734 5732 5727 5728 5728 5728 5728 5728 5729 5729 5729 5728 5727 5726 5726 5726 5723 5722 5721 5719 5717 5715 5714 5713 5711 5710 5710 5709 5708 5706 5704 5702 5701 5700 5699 5698 5696 5695 5694 5693
5713 5703 5706 5718 5732 5732 5721 5711 5725 5732 5730 5725 5725 5724 5723 5723 5725 5727 5728 5727 5726 5725 5723 5722 5722 5720 5719 5717 5715 5714 5712 5710 5709 5707 5705 5705 5704 5703 5701 5699 5698 5697 5695 5694 5693 5690 5689 5687 5687
5701 5703 5706 5710 5724 5725 5716 5713 5721 5727 5727 5723 5722 5720 5720 5720 5723 5726 5726 5726 5724 5722 5721 5719 5718 5716 5715 5713 5711 5708 5707 5706 5704 5702 5701 5700 5699 5698 5696 5694 5693 5692 5690 5688 5687 5685 5684 5682 5682
5714 5708 5705 5713 5727 5720 5712 5711 5716 5722 5721 5719 5718 5717 5717 5719 5723 5724 5724 5723 5721 5718 5716 5714 5712 5710 5709 5706 5704 5701 5699 5699 5698 5698 5696 5695 5694 5693 5691 5689 5688 5686 5684 5683 5682 5680 5677 5676 5676
5714 5706 5705 5713 5725 5718 5708 5708 5715 5720 5720 5720 5718 5717 5717 5718 5718 5719 5720 5718 5716 5714 5713 5711 5709 5707 5706 5704 5702 5699 5696 5694 5694 5693 5692 5690 5689 5688 5687 5684 5682 5681 5679 5677 5676 5675 5671 5670 5670
5712 5706 5706 5707 5715 5716 5708 5700 5707 5715 5720 5720 5721 5720 5720 5719 5717 5716 5715 5713 5712 5710 5710 5709 5706 5704 5703 5701 5698 5695 5692 5689 5688 5687 5685 5685 5685 5683 5682 5680 5678 5676 5675 5672 5671 5670 5667 5663 5663
5703 5717 5716 5711 5699 5690 5700 5679 5698 5707 5710 5715 5717 5717 5717 5719 5718 5715 5713 5710 5709 5709 5708 5706 5703 5701 5699 5697 5694 5690 5685 5682 5682 5682 5681 5680 5679 5679 5677 5675 5673 5672 5670 5668 5667 5665 5663 5660 5657
5713 5721 5715 5710 5698 5688 5691 5680 5688 5703 5703 5710 5715 5717 5718 5718 5716 5714 5712 5710 5708 5707 5704 5702 5700 5698 5695 5693 5690 5686 5682 5680 5678 5677 5676 5675 5674 5674 5673 5671 5669 5667 5665 5664 5662 5660 5659 5657 5654
5721 5713 5705 5695 5685 5671 5684 5677 5681 5695 5705 5712 5715 5717 5717 5716 5714 5712 5710 5708 5705 5703 5700 5698 5695 5693 5691 5688 5685 5682 5679 5676 5673 5672 5671 5670 5669 5669 5668 5666 5664 5663 5661 5659 5657 5656 5654 5652 5651
5709 5686 5668 5666 5659 5663 5685 5680 5684 5705 5714 5716 5716 5716 5715 5713 5710 5707 5704 5702 5700 5697 5696 5694 5691 5688 5686 5684 5682 5679 5677 5673 5671 5668 5667 5665 5663 5663 5663 5662 5660 5658 5657 5655 5653 5651 5649 5648 5646
5700 5686 5664 5656 5654 5663 5681 5676 5691 5712 5717 5719 5718 5715 5712 5709 5707 5705 5703 5700 5698 5695 5692 5690 5687 5684 5682 5680 5677 5675 5673 5670 5668 5666 5664 5662 5660 5659 5659 5657 5656 5654 5652 5651 5648 5646 5645 5644 5642
5694 5685 5686 5669 5667 5660 5667 5680 5695 5708 5709 5710 5710 5708 5706 5705 5704 5702 5699 5697 5695 5692 5689 5687 5684 5680 5678 5675 5673 5670 5669 5667 5664 5662 5660 5659 5658 5657 5655 5653 5651 5649 5648 5646 5644 5641 5640 5638 5637
5704 5693 5675 5665 5654 5648 5661 5670 5677 5691 5696 5701 5702 5701 5702 5702 5700 5698 5696 5694 5692 5690 5687 5684 5681 5677 5674 5671 5669 5667 5665 5663 5660 5658 5656 5654 5654 5652 5650 5648 5646 5644 5642 5640 5638 5636 5635 5633 5631
5692 5688 5678 5663 5660 5649 5646 5662 5693 5694 5696 5696 5697 5699 5699 5698 5696 5694 5692 5691 5688 5686 5682 5679 5676 5672 5669 5666 5664 5662 5660 5658 5656 5654 5652 5651 5650 5648 5645 5643 5641 5639 5637 5635 5632 5630 5629 5627 5626
5693 5687 5675 5658 5656 5653 5647 5661 5698 5697 5697 5696 5695 5696 5696 5696 5694 5691 5688 5685 5682 5679 5677 5674 5671 5668 5666 5663 5660 5658 5656 5654 5651 5650 5648 5647 5645 5643 5641 5638 5635 5633 5631 5629 5627 5625 5623 5622 5620